Green Cape Observation History
Time Wind Speed Temp Pressure Rel. Hum Rain
30/11:00am CALM 0 kts 23.7°c 1011.1 hPa 70% 0.0mm
30/10:30am NW 3-5 kts 23.0°c 1011.3 hPa 73% 0.0mm
30/10:00am NW 7-8 kts 21.3°c 1011.4 hPa 79% 0.0mm
30/09:30am NW 7-8 kts 19.9°c 1011.2 hPa 85% 0.0mm
30/09:00am NW 8-10 kts 19.4°c 1011.3 hPa 85% 0.4mm
30/08:30am NW 3-5 kts 19.5°c 1011.1 hPa 83% 0.4mm
30/08:00am NW 6-7 kts 18.5°c 1010.6 hPa 91% 0.4mm
30/07:30am NW 7-8 kts 18.2°c 1010.6 hPa 94% 0.4mm
30/07:00am NW 2-4 kts 17.9°c 1010.2 hPa 94% 0.4mm
30/06:30am CALM 0 kts 18.1°c 1010.1 hPa 94% 0.4mm
30/06:00am CALM 0 kts 18.1°c 1010.1 hPa 94% 0.4mm
30/05:30am CALM 0-2 kts 17.7°c 1009.9 hPa 94% 0.4mm
30/05:00am NW 5-7 kts 18.1°c 1010.0 hPa 94% 0.4mm
30/04:30am SSW 5-7 kts 18.7°c 1009.7 hPa 93% 0.4mm
30/04:00am NW 5-7 kts 18.5°c 1009.9 hPa 93% 0.4mm
30/03:30am NNW 6-9 kts 18.0°c 1010.0 hPa 95% 0.4mm
30/03:00am NNW 7-10 kts 18.1°c 1010.4 hPa 95% 0.4mm
30/02:30am SW 7-10 kts 17.9°c 1011.0 hPa 95% 0.4mm
30/02:00am ENE 3-5 kts 17.8°c 1010.7 hPa 95% 0.4mm
30/01:30am W 4-5 kts 17.9°c 1011.0 hPa 95% 0.2mm
30/01:00am SSW 5-7 kts 18.0°c 1011.2 hPa 95% 0.2mm
30/12:30am N 11-12 kts 18.1°c 1011.6 hPa 95% 0.2mm
30/12:00am N 11-13 kts 18.6°c 1012.4 hPa 94% 0.2mm
Time Wind Speed Temp Pressure Rel. Hum Rain
29/11:30pm N 6-9 kts 19.1°c 1013.1 hPa 90% 0.0mm
29/11:00pm NNE 5-8 kts 19.9°c 1013.9 hPa 86% 0.0mm
29/10:30pm NNE 6-11 kts 20.1°c 1014.4 hPa 93% 0.0mm
29/10:14pm NNE 15-21 kts 19.7°c 1014.2 hPa 94% 0.0mm
29/10:00pm N 20-27 kts 20.1°c 1013.9 hPa 95% 0.0mm
29/09:30pm N 24-27 kts 20.1°c 1013.3 hPa 94% 0.0mm
29/09:00pm N 23-26 kts 20.1°c 1013.1 hPa 94% 0.0mm
29/08:30pm N 25-30 kts 20.2°c 1013.0 hPa 93% 0.0mm
29/08:00pm N 25-29 kts 20.3°c 1012.9 hPa 92% 0.0mm
29/07:30pm N 27-30 kts 20.3°c 1012.4 hPa 92% 0.0mm
29/07:00pm N 27-33 kts 20.4°c 1012.2 hPa 91% 0.0mm
29/06:30pm N 24-28 kts 20.5°c 1012.5 hPa 90% 0.0mm
29/06:00pm N 25-29 kts 20.8°c 1012.3 hPa 88% 0.0mm
29/05:30pm N 24-29 kts 21.2°c 1012.5 hPa 87% 0.0mm
29/05:00pm N 25-29 kts 21.2°c 1012.4 hPa 86% 0.0mm
29/04:30pm N 24-30 kts 21.4°c 1012.9 hPa 85% 0.0mm
29/04:00pm N 26-32 kts 21.3°c 1013.1 hPa 85% 0.0mm
29/03:30pm N 27-33 kts 21.1°c 1013.5 hPa 86% 0.0mm
29/03:00pm N 26-32 kts 21.4°c 1014.0 hPa 86% 0.0mm
29/02:30pm N 27-33 kts 21.4°c 1014.2 hPa 87% 0.0mm
29/02:00pm N 29-35 kts 21.0°c 1014.4 hPa 87% 0.0mm
29/01:30pm N 28-34 kts 21.8°c 1015.2 hPa 85% 0.0mm
29/01:00pm N 29-33 kts 21.3°c 1015.9 hPa 86% 0.0mm
29/12:30pm N 27-31 kts 21.9°c 1016.5 hPa 84% 0.0mm
29/12:00pm N 26-31 kts 21.3°c 1016.7 hPa 83% 0.0mm
29/11:30am N 25-29 kts 21.4°c 1017.2 hPa 80% 0.0mm
29/11:00am N 23-27 kts 21.5°c 1017.7 hPa 82% 0.0mm
29/10:30am N 23-28 kts 21.0°c 1017.9 hPa 83% 0.0mm
29/10:00am N 20-25 kts 20.3°c 1018.1 hPa 88% 0.0mm
29/09:30am N 20-23 kts 20.0°c 1018.1 hPa 89% 0.0mm
29/09:00am N 21-24 kts 19.3°c 1018.0 hPa 89% 0.0mm
29/08:30am N 19-22 kts 19.0°c 1018.0 hPa 92% 0.0mm
29/08:00am N 20-24 kts 19.3°c 1017.8 hPa 93% 0.0mm
29/07:30am N 23-27 kts 19.4°c 1017.6 hPa 92% 0.0mm
29/07:00am N 24-27 kts 19.4°c 1017.4 hPa 92% 0.0mm
29/06:30am N 25-28 kts 19.4°c 1017.2 hPa 91% 0.0mm
29/06:00am N 26-30 kts 19.4°c 1017.3 hPa 91% 0.0mm
29/05:30am N 24-28 kts 19.4°c 1017.4 hPa 89% 0.0mm
29/05:00am N 20-23 kts 19.2°c 1017.7 hPa 87% 0.0mm
29/04:30am N 20-24 kts 19.3°c 1017.9 hPa 85% 0.0mm
29/04:00am N 20-23 kts 19.2°c 1018.2 hPa 83% 0.0mm
29/03:30am N 18-21 kts 19.0°c 1018.5 hPa 85% 0.0mm
29/03:00am N 16-19 kts 19.3°c 1018.9 hPa 86% 0.0mm
29/02:30am N 19-21 kts 19.5°c 1019.2 hPa 85% 0.0mm
29/02:00am N 12-14 kts 19.2°c 1019.7 hPa 86% 0.0mm
29/01:30am N 16-19 kts 19.4°c 1019.8 hPa 85% 0.0mm
29/01:00am N 12-15 kts 19.2°c 1020.2 hPa 84% 0.0mm
29/12:30am ENE 13-17 kts 19.4°c 1020.5 hPa 82% 0.0mm
29/12:00am ENE 14-17 kts 19.7°c 1020.9 hPa 83% 0.0mm
Time Wind Speed Temp Pressure Rel. Hum Rain
28/11:30pm N 18-26 kts 20.2°c 1021.1 hPa 81% 0.0mm
28/11:00pm N 25-30 kts 20.5°c 1021.0 hPa 77% 0.0mm
28/10:30pm N 25-29 kts 20.6°c 1020.8 hPa 79% 0.0mm
28/10:00pm N 24-30 kts 20.7°c 1021.0 hPa 80% 0.0mm
28/09:30pm N 25-30 kts 20.6°c 1021.0 hPa 78% 0.0mm
28/09:00pm N 24-28 kts 20.8°c 1021.2 hPa 79% 0.0mm
28/08:30pm N 25-30 kts 20.7°c 1021.1 hPa 78% 0.0mm
28/08:00pm N 24-29 kts 20.4°c 1021.0 hPa 78% 0.0mm
28/07:30pm N 25-28 kts 20.4°c 1021.0 hPa 78% 0.0mm
28/07:00pm N 23-28 kts 20.4°c 1020.9 hPa 78% 0.0mm
28/06:30pm N 23-26 kts 20.5°c 1020.9 hPa 78% 0.0mm
28/06:00pm N 24-29 kts 20.7°c 1020.8 hPa 75% 0.0mm
28/05:30pm N 24-28 kts 20.7°c 1020.8 hPa 76% 0.0mm
28/05:00pm N 24-28 kts 21.1°c 1020.9 hPa 79% 0.0mm
28/04:30pm N 22-25 kts 21.3°c 1021.3 hPa 76% 0.0mm
28/04:00pm N 22-25 kts 21.4°c 1021.5 hPa 74% 0.0mm
28/03:30pm N 22-25 kts 21.4°c 1021.8 hPa 74% 0.0mm
28/03:00pm N 20-24 kts 21.4°c 1022.3 hPa 75% 0.0mm
28/02:30pm N 20-23 kts 21.6°c 1022.4 hPa 75% 0.0mm
28/02:00pm N 21-25 kts 21.4°c 1023.0 hPa 74% 0.0mm
28/01:30pm N 20-24 kts 21.9°c 1023.4 hPa 74% 0.0mm
28/01:00pm N 19-22 kts 21.4°c 1023.8 hPa 74% 0.0mm
28/12:30pm N 19-22 kts 21.5°c 1024.1 hPa 72% 0.0mm
28/12:00pm N 17-19 kts 20.8°c 1024.4 hPa 73% 0.0mm
28/11:30am N 17-19 kts 20.7°c 1024.7 hPa 72% 0.0mm
28/11:00am N 15-18 kts 20.4°c 1024.9 hPa 74% 0.0mm
28/10:30am N 15-17 kts 20.4°c 1025.1 hPa 74% 0.0mm
28/10:00am N 13-15 kts 20.0°c 1025.2 hPa 75% 0.0mm
28/09:30am N 11-13 kts 19.0°c 1025.2 hPa 78% 0.0mm
28/09:00am N 11-13 kts 19.0°c 1025.1 hPa 76% 0.0mm
28/08:30am N 9-12 kts 18.8°c 1025.1 hPa 79% 0.0mm
28/08:00am N 8-10 kts 18.0°c 1024.9 hPa 83% 0.0mm
28/07:30am N 7-9 kts 16.9°c 1024.9 hPa 84% 0.0mm
28/07:00am N 5-6 kts 16.7°c 1024.8 hPa 82% 0.0mm
28/06:30am N 6-7 kts 16.7°c 1024.7 hPa 82% 0.0mm
28/06:00am N 6-7 kts 16.9°c 1024.6 hPa 83% 0.0mm
28/05:30am N 5-7 kts 16.6°c 1024.6 hPa 82% 0.0mm
28/05:00am N 6-7 kts 17.2°c 1024.4 hPa 83% 0.0mm
28/04:30am N 6-8 kts 17.5°c 1024.4 hPa 82% 0.0mm
28/04:00am N 8-11 kts 17.9°c 1024.3 hPa 81% 0.0mm
28/03:30am N 12-16 kts 18.3°c 1024.4 hPa 83% 0.0mm
28/03:00am N 16-18 kts 18.6°c 1024.5 hPa 83% 0.0mm
28/02:30am N 12-16 kts 18.4°c 1024.7 hPa 83% 0.0mm
28/02:00am N 10-13 kts 18.4°c 1025.0 hPa 82% 0.0mm
28/01:30am N 9-13 kts 18.8°c 1025.1 hPa 82% 0.0mm
28/01:00am N 16-20 kts 19.3°c 1025.1 hPa 79% 0.0mm
28/12:30am N 18-21 kts 19.4°c 1025.1 hPa 78% 0.0mm
28/12:00am N 20-23 kts 19.5°c 1025.3 hPa 77% 0.0mm